CZ-4B R/B

Satellite information

Favourite Embed

Satellite Type and Status

ROCKET BODYIN ORBIT

Key statistics

Satellite CZ-4B R/B at a glance.

Uptime

2607

Days in orbit

Revolutions

≈ 14.3

Per day

Orbit

SSO

Sun Synchronous Orbit

Inclination

99.4

Latest

Satellite identification and parameters

Extended collection of information and parameters for CZ-4B R/B.

Object identification

Identified? True

Debris? False

Object name: CZ-4B R/B

International designator: 2018-081B

Object number (NORAD): 43656

Object ID (CCSDS): 43656

Country: PEOPLES REPUBLIC OF CHINA (PRC)

Current information (Y/N): Y

RCS size: LARGE

Orbital parameters

Period: 100.576 minutes

Inclination: 99.3757 deg

SMA: 7163.994 km

Apoapsis: 933.344 km

Periapsis: 638.374 km

RAAN: 244.228 deg

Eccentricy: 0.02058696

Argument of periapsis: 85.1881 deg

Mean anomaly: 277.2773 deg

Mean motion: 14.31759017 rev/day

Mean motion (dot): 0.00000287 rev/day2

B* drag term: 0.00010174167 1/REarth

Two-line elements (TLE)

Creation date: Dec. 12, 2025, 10:14 a.m.

Reference frame: TEME

Reference center: EARTH

Epoch: Dec. 12, 2025, 6:09 a.m. UTC

TLE line 0: 0 CZ-4B R/B

TLE line 1: 1 43656U 18081B 25346.25638739 .00000287 00000-0 10174-3 0 9998

TLE line 2: 2 43656 99.3757 244.2280 0205870 85.1881 277.2773 14.31759017372556

Live tracking on map

Real-time ground track for satellite CZ-4B R/B.

In-orbit conjunctions

A list of the most updated potential collisions computed for object CZ-4B R/B.

Target Orbit TCA Probability of collision Miss distance Type
COSMOS 1275 DEB LEO 2025-10-11 15:16:08 0.0001959366 271.0 (m) DEBRIS
METEOR 2-8 DEB LEO 2025-07-25 07:34:48 0.0002335979 784.0 (m) DEBRIS
COSMOS 2251 DEB LEO 2024-10-20 07:06:09 0.0001490344 238.0 (m) DEBRIS
IRIDIUM 33 DEB LEO 2024-08-06 14:37:32 0.000814597 57.0 (m) DEBRIS
FENGYUN 1C DEB SSO 2024-07-25 15:44:19 0.0001013464 996.0 (m) DEBRIS

Associated space launch

Haiyang is a series of Chinese marine remote sensing satellites. Haiyang 2B is a follow up to Haiyang 2A satellite. It is intended for monitoring the dynamic ocean environnement with microwave sensors to detect sea surface wind field, sea surface height and sea surface temperature.

CZ-4B R/B was lifted into orbit during the mission ‘Long March 4B | Haiyang 2B’, on board a Long March 4B space rocket.

The launch took place on Oct. 24, 2018, 10:57 p.m. from Launch Complex 9.

For more information about the launch, click the button.

Launch to space Long March 4B | Haiyang 2B
Long March 4B | Haiyang 2B

Agency: N/A

Status: Launch Successful

Launch date: Oct. 24, 2018, 10:57 p.m. UTC

Rocket: Long March 4B

Launch pad: Launch Complex 9

Location: Taiyuan Satellite Launch Center, People's Republic of China

...

Latest news about this satellite

There are no fresh news available about this satellite. Check back as we update our databases every day.


Newsletter sign-up

Weekly statistics, charts and insights to help you stay on top of the space industry.